When you browse on this site, cookies collect data to enhance your experience and personalize the content and advertising you see.
Visit our Privacy Policy to learn more. By continuing to use the site, you agree to this use of cookies and data.
  • In France
  • List of Countries
  • For 7 days
  • Water Temperature
  • Satellite Maps
  • Weather Map
  • Weather Widgets
  • user-avatar
    Login

    Hourly Weather Busan

    Today, 16 July, Tuesday

    Time Temperature Precipitation Wind Pressure Humidity
    00:00 +24°C° 0 mm 3 mps 754 mmHg 80%
    01:00 +22°C° 0 mm 3 mps 753 mmHg 81%
    02:00 +22°C° 0 mm 3 mps 753 mmHg 82%
    03:00 +22°C° 0 mm 3 mps 753 mmHg 82%
    04:00 +22°C° 0 mm 3 mps 754 mmHg 82%
    05:00 +22°C° 0 mm 3 mps 754 mmHg 82%
    06:00 +22°C° 0 mm 3 mps 754 mmHg 82%
    07:00 +24°C° 0 mm 3 mps 754 mmHg 75%
    08:00 +26°C° 0 mm 3 mps 755 mmHg 68%
    09:00 +28°C° 0 mm 3 mps 755 mmHg 59%
    10:00 +29°C° 0 mm 3 mps 755 mmHg 57%
    11:00 +30°C° 0 mm 4 mps 755 mmHg 54%
    12:00 +32°C° 0 mm 4 mps 755 mmHg 51%
    13:00 +32°C° 0 mm 4 mps 754 mmHg 52%
    14:00 +32°C° 0 mm 4 mps 754 mmHg 53%
    15:00 +30°C° 0 mm 4 mps 754 mmHg 53%
    16:00 +30°C° 0 mm 4 mps 754 mmHg 55%
    17:00 +29°C° 0 mm 4 mps 754 mmHg 57%
    18:00 +29°C° 0 mm 4 mps 754 mmHg 60%
    19:00 +28°C° 0 mm 4 mps 754 mmHg 65%
    20:00 +26°C° 0 mm 4 mps 755 mmHg 70%
    21:00 +25°C° 0 mm 4 mps 755 mmHg 75%
    22:00 +23°C° 0 mm 4 mps 755 mmHg 77%
    23:00 +23°C° 0 mm 4 mps 755 mmHg 79%

    Tomorrow, 17 July, Wednesday

    Time Temperature Precipitation Wind Pressure Humidity
    00:00 +23°C° 0 mm 4 mps 755 mmHg 81%
    01:00 +22°C° 0 mm 4 mps 755 mmHg 82%
    02:00 +22°C° 0 mm 3 mps 755 mmHg 82%
    03:00 +22°C° 0 mm 3 mps 755 mmHg 83%
    04:00 +22°C° 0 mm 3 mps 755 mmHg 83%
    05:00 +22°C° 0 mm 3 mps 755 mmHg 83%
    06:00 +22°C° 0 mm 3 mps 756 mmHg 83%
    07:00 +24°C° 0 mm 3 mps 756 mmHg 75%
    08:00 +26°C° 0 mm 3 mps 755 mmHg 67%
    09:00 +28°C° 0 mm 3 mps 755 mmHg 59%
    10:00 +29°C° 0 mm 3 mps 755 mmHg 54%
    11:00 +31°C° 0 mm 3 mps 755 mmHg 49%
    12:00 +34°C° 0 mm 3 mps 756 mmHg 43%
    13:00 +34°C° 0 mm 3 mps 755 mmHg 44%
    14:00 +33°C° 0 mm 3 mps 754 mmHg 45%
    15:00 +33°C° 0 mm 3 mps 754 mmHg 45%
    16:00 +33°C° 0 mm 3 mps 754 mmHg 49%
    17:00 +31°C° 0 mm 3 mps 754 mmHg 53%
    18:00 +30°C° 0 mm 2 mps 754 mmHg 57%
    19:00 +29°C° 0 mm 2 mps 754 mmHg 62%
    20:00 +27°C° 0 mm 2 mps 754 mmHg 68%
    21:00 +26°C° 0 mm 2 mps 754 mmHg 73%
    22:00 +26°C° 0 mm 1 mps 754 mmHg 75%
    23:00 +26°C° 0 mm 1 mps 754 mmHg 77%

    Day after tomorrow, 18 July, Thursday

    Time Temperature Precipitation Wind Pressure Humidity
    00:00 +26°C° 0 mm 1 mps 754 mmHg 78%
    01:00 +25°C° 0.7 mm 1 mps 754 mmHg 81%
    02:00 +25°C° 0.7 mm 1 mps 754 mmHg 84%
    03:00 +25°C° 0.7 mm 1 mps 753 mmHg 87%
    04:00 +24°C° 3.8 mm 1 mps 754 mmHg 88%
    05:00 +24°C° 3.8 mm 2 mps 754 mmHg 88%
    06:00 +23°C° 3.8 mm 2 mps 754 mmHg 89%
    07:00 +23°C° 1.6 mm 2 mps 754 mmHg 88%
    08:00 +23°C° 1.6 mm 2 mps 754 mmHg 88%
    09:00 +22°C° 1.6 mm 3 mps 754 mmHg 88%
    10:00 +23°C° 1.3 mm 2 mps 754 mmHg 87%
    11:00 +24°C° 1.3 mm 2 mps 754 mmHg 87%
    12:00 +24°C° 1.3 mm 2 mps 754 mmHg 86%
    13:00 +24°C° 0.9 mm 2 mps 754 mmHg 86%
    14:00 +24°C° 0.9 mm 2 mps 753 mmHg 86%
    15:00 +25°C° 0.9 mm 1 mps 753 mmHg 86%
    16:00 +25°C° 0.5 mm 1 mps 752 mmHg 87%
    17:00 +24°C° 0.5 mm 1 mps 752 mmHg 88%
    18:00 +24°C° 0.5 mm 1 mps 752 mmHg 89%
    19:00 +24°C° 1.6 mm 1 mps 752 mmHg 91%
    20:00 +24°C° 1.6 mm 1 mps 752 mmHg 92%
    21:00 +24°C° 1.6 mm 1 mps 752 mmHg 93%
    22:00 +24°C° 1.2 mm 1 mps 752 mmHg 93%
    23:00 +24°C° 1.2 mm 2 mps 752 mmHg 94%

    19 July, Friday

    Time Temperature Precipitation Wind Pressure Humidity
    00:00 +24°C° 1.2 mm 2 mps 752 mmHg 94%
    01:00 +24°C° 1.1 mm 2 mps 751 mmHg 93%
    02:00 +24°C° 1.1 mm 3 mps 751 mmHg 93%
    03:00 +24°C° 1.1 mm 3 mps 750 mmHg 92%
    04:00 +24°C° 1.5 mm 3 mps 750 mmHg 93%
    05:00 +24°C° 1.5 mm 3 mps 750 mmHg 93%
    06:00 +23°C° 1.5 mm 4 mps 750 mmHg 93%
    07:00 +23°C° 3 mm 4 mps 750 mmHg 93%
    08:00 +23°C° 3 mm 4 mps 750 mmHg 94%
    09:00 +23°C° 3 mm 5 mps 750 mmHg 94%
    10:00 +23°C° 4 mm 5 mps 749 mmHg 93%
    11:00 +25°C° 4 mm 5 mps 749 mmHg 92%
    12:00 +25°C° 4 mm 5 mps 749 mmHg 92%
    13:00 +24°C° 3.8 mm 6 mps 748 mmHg 92%
    14:00 +24°C° 3.8 mm 7 mps 748 mmHg 92%
    15:00 +24°C° 3.8 mm 8 mps 747 mmHg 93%
    16:00 +24°C° 3 mm 8 mps 747 mmHg 93%
    17:00 +24°C° 3 mm 8 mps 746 mmHg 93%
    18:00 +24°C° 3 mm 9 mps 746 mmHg 93%
    19:00 +24°C° 0.6 mm 8 mps 745 mmHg 93%
    20:00 +24°C° 0.6 mm 8 mps 745 mmHg 93%
    21:00 +24°C° 0.6 mm 7 mps 745 mmHg 93%
    22:00 +24°C° 2.2 mm 8 mps 744 mmHg 93%
    23:00 +24°C° 2.2 mm 9 mps 743 mmHg 93%

    20 July, Saturday

    Time Temperature Precipitation Wind Pressure Humidity
    00:00 +24°C° 2.2 mm 9 mps 743 mmHg 93%
    01:00 +24°C° 6.6 mm 9 mps 742 mmHg 94%
    02:00 +24°C° 6.6 mm 9 mps 741 mmHg 94%
    03:00 +24°C° 6.6 mm 8 mps 741 mmHg 95%
    04:00 +24°C° 2.7 mm 8 mps 741 mmHg 94%
    05:00 +24°C° 2.7 mm 7 mps 740 mmHg 93%
    06:00 +24°C° 2.7 mm 6 mps 740 mmHg 93%
    07:00 +25°C° 1.9 mm 5 mps 740 mmHg 93%
    08:00 +25°C° 1.9 mm 4 mps 740 mmHg 93%
    09:00 +26°C° 1.9 mm 4 mps 740 mmHg 94%
    10:00 +26°C° 0.7 mm 3 mps 740 mmHg 91%
    11:00 +26°C° 0.7 mm 3 mps 740 mmHg 89%
    12:00 +27°C° 0.7 mm 3 mps 740 mmHg 86%
    13:00 +28°C° 0.4 mm 3 mps 740 mmHg 81%
    14:00 +29°C° 0.4 mm 3 mps 740 mmHg 77%
    15:00 +30°C° 0.4 mm 3 mps 740 mmHg 72%
    16:00 +29°C° 0.6 mm 2 mps 740 mmHg 77%
    17:00 +28°C° 0.6 mm 2 mps 740 mmHg 81%
    18:00 +27°C° 0.6 mm 1 mps 740 mmHg 86%
    19:00 +27°C° 1.2 mm 2 mps 741 mmHg 88%
    20:00 +27°C° 1.2 mm 2 mps 741 mmHg 91%
    21:00 +26°C° 1.2 mm 3 mps 742 mmHg 93%
    22:00 +26°C° 0.9 mm 4 mps 742 mmHg 94%
    23:00 +26°C° 0.9 mm 5 mps 743 mmHg 94%

    21 July, Sunday

    Time Temperature Precipitation Wind Pressure Humidity
    00:00 +26°C° 0.9 mm 6 mps 743 mmHg 94%
    01:00 +26°C° 0.1 mm 6 mps 743 mmHg 94%
    02:00 +24°C° 0.1 mm 6 mps 743 mmHg 94%
    03:00 +24°C° 0.1 mm 6 mps 744 mmHg 93%
    04:00 +24°C° 0.2 mm 6 mps 744 mmHg 93%
    05:00 +25°C° 0.2 mm 5 mps 744 mmHg 93%
    06:00 +25°C° 0.2 mm 5 mps 745 mmHg 93%
    07:00 +26°C° 0 mm 6 mps 745 mmHg 90%
    08:00 +26°C° 0 mm 6 mps 746 mmHg 88%
    09:00 +27°C° 0 mm 6 mps 746 mmHg 85%
    10:00 +28°C° 0 mm 7 mps 746 mmHg 79%
    11:00 +30°C° 0 mm 7 mps 746 mmHg 72%
    12:00 +32°C° 0 mm 7 mps 747 mmHg 66%
    13:00 +32°C° 0 mm 7 mps 746 mmHg 64%
    14:00 +33°C° 0 mm 7 mps 746 mmHg 63%
    15:00 +33°C° 0 mm 7 mps 746 mmHg 62%
    16:00 +32°C° 0 mm 6 mps 746 mmHg 65%
    17:00 +30°C° 0 mm 6 mps 747 mmHg 69%
    18:00 +30°C° 0 mm 6 mps 747 mmHg 72%
    19:00 +28°C° 0 mm 5 mps 747 mmHg 77%
    20:00 +27°C° 0 mm 4 mps 748 mmHg 81%
    21:00 +26°C° 0 mm 4 mps 748 mmHg 86%
    22:00 +26°C° 0 mm 3 mps 748 mmHg 87%
    23:00 +26°C° 0 mm 3 mps 748 mmHg 87%
    Show more